{"data":{"norad_id":49492,"intl_designator":"2021-107A","name":"GAOFEN-11 03","alt_names":[],"object_type":"PAYLOAD","status":"ACTIVE","operator":null,"country":"PRC","launch_date":"2021-11-20","launch_site_code":"TAISC","launch_vehicle":null,"mission":null,"orbit_class":"UNKNOWN","rcs_meters":null,"size_class":null,"mass_kg":null,"dimensions":null,"purposes":[],"wikipedia_slug":null,"has_3d_model":false,"image_url":null,"decayed_at":null,"tle_current":{"epoch":"2026-09-20T22:26:27.615840Z","epoch_age_seconds":69848,"freshness":"FRESH","line1":"1 49492U 21107A   26263.93504185  .00002923  00000+0  12460-3 0  9994","line2":"2 49492  97.1999 304.3057 0006048  99.0044 261.1878 15.23680743269212","mean_motion":15.23680743,"eccentricity":0.0006048,"inclination_deg":97.1999,"raan_deg":304.3057,"arg_perigee_deg":99.0044,"mean_anomaly_deg":261.1878,"bstar":0.0001246,"rev_number":26921,"period_min":94.507987097399,"perigee_km":490.59304486326,"apogee_km":498.90648869636,"semimajor_km":6872.8867667798,"source":"CELESTRAK","updated_at":"2026-09-21T09:00:08.123906Z"}}}